Find Starlink 37532

NORAD ID: 69468 Int'l Des: 2026-127 Owner: SPXS Country: US Constellation: starlink operational
LEOCIRCULAR

当前视图

正在加载3D地球...

About Starlink 37532

Starlink 37532 (NORAD 69468) is a starlink constellation satellite launched Jun 8, 2026 by SPXS of US. It operates in LEO, CIRCULAR orbit with a mass of 575.00 kg.

即将过境

Passes for default location (London). Set your location on the main map for personalized predictions.

高度历史

Loading altitude history...

两行轨道根数

1 69468U 26127AB 26205.61297283 .00071533 00000-0 12796-2 0 9990
2 69468 53.1604 77.1176 0003141 83.2585 276.8782 15.49369380 7299
Epoch: Jul 24, 2026 • Age: 44 hours

当前状态

高度 420.5 km
远地点 / 近地点 N/A
速度 7.67 km/s
星下点 44.53°N, 16.66°E
发射日期 Jun 8, 2026
运行时间 0.1 years
类型 internet

技术详情

分类 Payload
质量 575.00 kg
干质量 530.00 kg
总质量 575.00 kg
长度 0.30 m
直径 4.10 m
跨度 29.00 m
形状 Box + pan
制造商 SPXS
平台类型 Starlink V2MO
阶段状态 In Orbit
所有者/国家 SPXS/US

Most Searched